TimeEDT,TemperatureF,Dew PointF,Humidity,Sea Level PressureIn,VisibilityMPH,Wind Direction,Wind SpeedMPH,Gust SpeedMPH,PrecipitationIn,Events,Conditions,WindDirDegrees,DateUTC
12:00 AM,24.8,-9999,N/A,29.83,3.5,East,27.6,33.4,N/A,Snow,Light Snow,100,2012-10-16 04:00:00
12:08 AM,23.0,-9999,N/A,29.70,2.5,East,26.5,-,N/A,Snow,Light Snow,100,2012-10-16 04:08:00
12:18 AM,23.0,-9999,N/A,29.70,3.0,East,24.2,29.9,N/A,Snow,Light Snow,100,2012-10-16 04:18:00
12:22 AM,24.8,-9999,N/A,29.70,3.0,East,24.2,29.9,N/A,Snow,Light Snow,100,2012-10-16 04:22:00
12:23 AM,24.8,-9999,N/A,29.70,3.0,East,24.2,29.9,N/A,Snow,Light Snow,100,2012-10-16 04:23:00
1:00 AM,24.8,-9999,N/A,29.86,8.0,ENE,17.3,25.3,N/A,Snow,Light Snow,70,2012-10-16 05:00:00
1:06 AM,24.8,-9999,N/A,29.71,9.0,NNE,11.5,20.7,N/A,Snow,Light Snow,30,2012-10-16 05:06:00
1:21 AM,24.8,-9999,N/A,29.72,9.0,ENE,12.7,-,N/A,,Scattered Clouds,70,2012-10-16 05:21:00
2:00 AM,25,,,29.86,9,ENE,17.3,,,,,70,2012-10-16 06:00:00
2:00 AM,24.8,-9999,N/A,29.86,9.0,ENE,18.4,-,N/A,Snow,Light Snow,70,2012-10-16 06:00:00
3:00 AM,24.8,-9999,N/A,29.86,9.0,East,23.0,-,N/A,Snow,Light Snow,90,2012-10-16 07:00:00
4:00 AM,24.8,-9999,N/A,29.88,9.0,East,19.6,-,N/A,Snow,Light Snow,100,2012-10-16 08:00:00
5:00 AM,24,,,29.88,9,ESE,24.2,,,Snow,Light Snow,110,2012-10-16 09:00:00
5:00 AM,24.8,-9999,N/A,29.88,9.0,ESE,23.0,-,N/A,Snow,Light Snow,110,2012-10-16 09:00:00
5:28 AM,24.8,-9999,N/A,29.76,9.0,ESE,17.3,-,N/A,,Partly Cloudy,110,2012-10-16 09:28:00
6:00 AM,24.8,-9999,N/A,29.89,9.0,East,21.9,-,N/A,,Partly Cloudy,90,2012-10-16 10:00:00
6:16 AM,24.8,-9999,N/A,29.75,9.0,East,16.1,21.9,N/A,Snow,Light Snow,80,2012-10-16 10:16:00
6:20 AM,24.8,-9999,N/A,29.75,9.0,ENE,16.1,-,N/A,Snow,Light Snow,70,2012-10-16 10:20:00
6:29 AM,24.8,-9999,N/A,29.74,9.0,East,15.0,-,N/A,,Mostly Cloudy,80,2012-10-16 10:29:00
6:31 AM,24.8,-9999,N/A,29.74,9.0,ENE,17.3,-,N/A,,Scattered Clouds,70,2012-10-16 10:31:00
7:00 AM,24.8,-9999,N/A,29.86,9.0,ENE,8.1,-,N/A,,Clear,60,2012-10-16 11:00:00
8:00 AM,25,,,29.85,9,ENE,17.3,,,,,70,2012-10-16 12:00:00
8:00 AM,24.8,-9999,N/A,29.85,9.0,ENE,15.0,20.7,N/A,,Partly Cloudy,70,2012-10-16 12:00:00
9:00 AM,23.0,-9999,N/A,29.84,9.0,ENE,8.1,-,N/A,,Clear,60,2012-10-16 13:00:00
10:00 AM,24.8,-9999,N/A,29.83,9.0,ENE,15.0,-,N/A,,Clear,70,2012-10-16 14:00:00
10:31 AM,24.8,-9999,N/A,29.68,9.0,ENE,11.5,18.4,N/A,Snow,Light Snow,60,2012-10-16 14:31:00
10:35 AM,24.8,-9999,N/A,29.68,9.0,ENE,9.2,-,N/A,,Clear,70,2012-10-16 14:35:00
10:52 AM,26.6,-9999,N/A,29.67,9.0,NE,13.8,-,N/A,Snow,Light Snow,40,2012-10-16 14:52:00
11:00 AM,26,,,29.81,9,NE,13.8,,,Snow,Light Snow,40,2012-10-16 15:00:00
11:00 AM,26.6,-9999,N/A,29.81,9.0,NE,16.1,-,N/A,Snow,Light Snow,40,2012-10-16 15:00:00
12:00 PM,28.4,-9999,N/A,29.80,9.0,East,24.2,-,N/A,Snow,Light Snow,90,2012-10-16 16:00:00
12:07 PM,28.4,-9999,N/A,29.68,9.0,East,20.7,-,N/A,,Clear,90,2012-10-16 16:07:00
12:17 PM,28.4,-9999,N/A,29.67,9.0,East,15.0,21.9,N/A,,Clear,90,2012-10-16 16:17:00
12:30 PM,28.4,-9999,N/A,29.66,9.0,ENE,23.0,-,N/A,Snow,Light Snow,70,2012-10-16 16:30:00
12:46 PM,28.4,-9999,N/A,29.64,9.0,ENE,13.8,19.6,N/A,,Clear,60,2012-10-16 16:46:00
1:00 PM,26.6,-9999,N/A,29.75,9.0,ENE,13.8,-,N/A,,Clear,60,2012-10-16 17:00:00
1:24 PM,28.4,-9999,N/A,29.64,9.0,ENE,13.8,21.9,N/A,Snow,Light Snow,60,2012-10-16 17:24:00
1:39 PM,26.6,-9999,N/A,29.63,9.0,ENE,13.8,-,N/A,,Clear,60,2012-10-16 17:39:00
2:00 PM,28,,,29.75,9,ENE,20.7,,,,,70,2012-10-16 18:00:00
2:00 PM,28.4,-9999,N/A,29.75,9.0,ENE,19.6,29.9,N/A,,Clear,60,2012-10-16 18:00:00
2:15 PM,28.4,-9999,N/A,29.61,9.0,ENE,19.6,-,N/A,Snow,Light Snow,60,2012-10-16 18:15:00
3:19 PM,28.4,-9999,N/A,29.60,9.0,NNE,15.0,-,N/A,,Mostly Cloudy,30,2012-10-16 19:19:00
4:00 PM,28.4,-9999,N/A,29.73,9.0,ENE,20.7,-,N/A,,Mostly Cloudy,70,2012-10-16 20:00:00
4:07 PM,28.4,-9999,N/A,29.60,9.0,ENE,20.7,-,N/A,Snow,Light Snow,70,2012-10-16 20:07:00
4:58 PM,28.4,-9999,N/A,29.61,9.0,East,16.1,23.0,N/A,Snow,Light Snow,80,2012-10-16 20:58:00
5:00 PM,28,,,29.74,9,East,17.3,,,Snow,Light Snow,80,2012-10-16 21:00:00
5:00 PM,28.4,-9999,N/A,29.74,9.0,East,16.1,23.0,N/A,Snow,Light Snow,80,2012-10-16 21:00:00
5:25 PM,28.4,-9999,N/A,29.60,9.0,East,26.5,-,N/A,Snow,Light Snow,90,2012-10-16 21:25:00
6:00 PM,28.4,-9999,N/A,29.70,7.0,East,39.1,44.9,N/A,Snow,Light Snow,90,2012-10-16 22:00:00
7:00 PM,28.4,-9999,N/A,29.71,9.0,East,35.7,-,N/A,Snow,Light Snow,90,2012-10-16 23:00:00
7:10 PM,26.6,-9999,N/A,29.59,9.0,East,29.9,35.7,N/A,Snow,Light Snow,90,2012-10-16 23:10:00
7:13 PM,26.6,-9999,N/A,29.59,9.0,East,29.9,-,N/A,Snow,Light Snow,90,2012-10-16 23:13:00
7:42 PM,26.6,-9999,N/A,29.59,9.0,East,31.1,-,N/A,Snow,Light Snow,90,2012-10-16 23:42:00
7:49 PM,28.4,-9999,N/A,29.59,9.0,East,29.9,-,N/A,Snow,Light Snow,90,2012-10-16 23:49:00
7:51 PM,28.4,-9999,N/A,29.59,9.0,East,28.8,-,N/A,Snow,Light Snow,90,2012-10-16 23:51:00
8:00 PM,27,,,29.72,9,East,27.6,,,,Overcast,90,2012-10-17 00:00:00
8:00 PM,26.6,-9999,N/A,29.72,9.0,East,25.3,32.2,N/A,Snow,Light Snow,90,2012-10-17 00:00:00
8:06 PM,26.6,-9999,N/A,29.60,9.0,East,25.3,-,N/A,Snow,Light Snow,100,2012-10-17 00:06:00
8:30 PM,26.6,-9999,N/A,29.60,9.0,East,19.6,26.5,N/A,Snow,Light Snow,90,2012-10-17 00:30:00
8:40 PM,26.6,-9999,N/A,29.59,9.0,East,21.9,-,N/A,Snow,Light Snow,80,2012-10-17 00:40:00
8:56 PM,26.6,-9999,N/A,29.59,9.0,East,21.9,28.8,N/A,Snow,Light Snow,80,2012-10-17 00:56:00
8:59 PM,26.6,-9999,N/A,29.59,9.0,East,23.0,28.8,N/A,Snow,Light Snow,80,2012-10-17 00:59:00
9:00 PM,26.6,-9999,N/A,29.72,9.0,East,25.3,-,N/A,Snow,Light Snow,80,2012-10-17 01:00:00
9:19 PM,26.6,-9999,N/A,29.59,9.0,East,23.0,-,N/A,Snow,Light Snow,80,2012-10-17 01:19:00
9:41 PM,26.6,-9999,N/A,29.59,9.0,East,27.6,-,N/A,Snow,Light Snow,90,2012-10-17 01:41:00
9:46 PM,26.6,-9999,N/A,29.59,3.0,East,31.1,-,N/A,Snow,Light Snow,90,2012-10-17 01:46:00
9:47 PM,26.6,-9999,N/A,29.59,2.0,East,32.2,-,N/A,Snow,Light Snow,90,2012-10-17 01:47:00
9:48 PM,26.6,-9999,N/A,29.59,1.4,East,31.1,-,N/A,Snow,Light Snow,90,2012-10-17 01:48:00
9:50 PM,26.6,-9999,N/A,29.59,1.0,East,31.1,-,N/A,Snow,Light Snow,90,2012-10-17 01:50:00
9:52 PM,26.6,-9999,N/A,29.59,0.6,East,32.2,-,N/A,Snow,Light Snow,90,2012-10-17 01:52:00
9:54 PM,26.6,-9999,N/A,29.59,0.5,East,32.2,-,N/A,Snow,Light Snow,90,2012-10-17 01:54:00
9:56 PM,26.6,-9999,N/A,29.59,0.4,East,31.1,-,N/A,Snow,Light Snow,90,2012-10-17 01:56:00
10:00 PM,26.6,-9999,N/A,29.72,0.4,East,31.1,-,N/A,Snow,Light Snow,90,2012-10-17 02:00:00
10:05 PM,26.6,-9999,N/A,29.59,0.4,East,31.1,-,N/A,Snow,Light Snow,100,2012-10-17 02:05:00
10:11 PM,26.6,-9999,N/A,29.59,0.2,East,28.8,-,N/A,Snow,Light Snow,90,2012-10-17 02:11:00
10:23 PM,26.6,-9999,N/A,29.59,0.1,East,23.0,-,N/A,Snow,Light Snow,90,2012-10-17 02:23:00
10:45 PM,26.6,-9999,N/A,29.59,0.1,East,19.6,-,N/A,Snow,Light Snow,80,2012-10-17 02:45:00
11:00 PM,27,,,29.71,0,East,20.7,,,Snow,Light Snow,90,2012-10-17 03:00:00
11:00 PM,26.6,-9999,N/A,29.71,0.1,East,21.9,-,N/A,Snow,Light Snow,90,2012-10-17 03:00:00
11:30 PM,26.6,-9999,N/A,29.58,0.1,East,23.0,-,N/A,Snow,Light Snow,90,2012-10-17 03:30:00
11:55 PM,26.6,-9999,N/A,29.59,0.5,East,17.3,23.0,N/A,Snow,Light Snow,90,2012-10-17 03:55:00